TimeEDT,TemperatureF,Dew PointF,Humidity,Sea Level PressureIn,VisibilityMPH,Wind Direction,Wind SpeedMPH,Gust SpeedMPH,PrecipitationIn,Events,Conditions,WindDirDegrees,DateUTC
12:53 AM,60.1,54.0,80,29.96,10.0,WNW,4.6,-,N/A,,Clear,290,2012-08-07 04:53:00
1:53 AM,57.9,53.1,84,29.96,10.0,Calm,Calm,-,N/A,,Clear,0,2012-08-07 05:53:00
2:53 AM,55.0,54.0,96,29.96,10.0,Calm,Calm,-,N/A,,Clear,0,2012-08-07 06:53:00
3:53 AM,53.1,51.1,93,29.96,10.0,Calm,Calm,-,N/A,,Clear,0,2012-08-07 07:53:00
4:53 AM,53.1,52.0,96,29.97,10.0,Calm,Calm,-,N/A,,Clear,0,2012-08-07 08:53:00
5:53 AM,54.0,53.1,97,29.98,10.0,Calm,Calm,-,N/A,,Partly Cloudy,0,2012-08-07 09:53:00
6:53 AM,57.9,55.0,90,29.99,10.0,West,3.5,-,N/A,,Partly Cloudy,260,2012-08-07 10:53:00
7:53 AM,63.0,55.0,75,29.99,10.0,Calm,Calm,-,N/A,,Partly Cloudy,0,2012-08-07 11:53:00
8:53 AM,66.9,55.0,66,29.99,10.0,Calm,Calm,-,N/A,,Partly Cloudy,0,2012-08-07 12:53:00
9:53 AM,72.0,53.1,51,29.98,10.0,Calm,Calm,-,N/A,,Scattered Clouds,0,2012-08-07 13:53:00
10:53 AM,73.9,53.1,48,29.98,10.0,NW,3.5,-,N/A,,Scattered Clouds,320,2012-08-07 14:53:00
11:53 AM,75.9,54.0,46,29.97,10.0,South,6.9,-,N/A,,Partly Cloudy,170,2012-08-07 15:53:00
12:53 PM,77.0,53.1,43,29.95,10.0,Calm,Calm,-,N/A,,Partly Cloudy,0,2012-08-07 16:53:00
1:53 PM,80.1,55.0,42,29.95,10.0,SSW,8.1,-,N/A,,Partly Cloudy,200,2012-08-07 17:53:00
2:53 PM,81.0,55.0,41,29.93,10.0,West,8.1,-,N/A,,Partly Cloudy,260,2012-08-07 18:53:00
3:53 PM,80.1,55.0,42,29.92,10.0,Calm,Calm,-,N/A,,Partly Cloudy,0,2012-08-07 19:53:00
4:53 PM,81.0,59.0,47,29.91,10.0,South,10.4,-,N/A,,Partly Cloudy,190,2012-08-07 20:53:00
5:53 PM,77.0,59.0,54,29.92,10.0,South,12.7,-,N/A,,Partly Cloudy,170,2012-08-07 21:53:00
6:53 PM,73.0,59.0,61,29.92,10.0,SSE,10.4,-,N/A,,Partly Cloudy,150,2012-08-07 22:53:00
7:53 PM,69.1,59.0,70,29.93,10.0,South,10.4,-,N/A,,Partly Cloudy,170,2012-08-07 23:53:00
8:53 PM,66.0,57.9,75,29.94,10.0,South,5.8,-,N/A,,Partly Cloudy,180,2012-08-08 00:53:00
9:53 PM,64.9,59.0,81,29.95,10.0,South,5.8,-,N/A,,Partly Cloudy,190,2012-08-08 01:53:00
10:53 PM,64.0,59.0,84,29.95,10.0,South,4.6,-,N/A,,Clear,190,2012-08-08 02:53:00
11:53 PM,63.0,59.0,87,29.96,10.0,South,4.6,-,N/A,,Clear,190,2012-08-08 03:53:00